STARLINK-37427, 69381

Orbit data source: Space-Track

STARLINK-37427, 69381 is a payload satellite owned by SpaceX/Seattle (US) in LEO that was launched on Thu, 04 Jun 2026 UTC via an FALCON 9 launch vehicle from the Air Force Eastern Test Range (AFETR). Payload-class satellites include a variety of spacecraft equipped with specific instruments for various scientific and technological missions. These include communications satellites like Starlink; space stations such as the ISS; scientific satellites like the Hubble; Earth observation satellites from companies like Planet Labs, Umbra, and HawkEye 360; GPS; miniature CubeSats for education and research; and military/defense satellites.

Loading next visibility...
Identifier
69381, 2026-123AE
Orbit
LEO
Country
Flag of USUS
Related business
Manufacturer
SpaceX/Seattle
Mission
Operational spacecraft
Bus & Motor
STARLINK V2MO, Unknown motor
Mass
575 kg wet, ~530 kg dry
Launch date (UTC)
2026-06-04 (2 months ago)
Launch vehicle
FALCON 9
Launch site
Air Force Eastern Test Range (AFETR)
Object type
Payload
Rocket body
Debris
Shape & HBR
BOX + PAN, 17.7 m
Radar Cross Section
Large (>1 m²)

Expand to show TLE details & history
Last TLE update: 10 hours ago

TLE from 10 hours ago
0 STARLINK-37427
1 69381U 26123AE  26207.58335648 -.02327071  00000-0 -41394-1 0  9996
2 69381  53.1596  44.4186 0000753  91.1238  21.0576 15.53285772  6028
Epoch: 2026-07-26T14:00Z
TLE epoch observation values (Epoch: 2026-07-26T14:00:01.999Z)
Latitude
47.96987°
Longitude
14.38488°
Altitude
412.012 km
Speed
7.67 km/s
True Right ascension
11h 14m 41s
True Declination
47° 47' 24"
Sunlit
Object was in daylight at epoch
Visualization orbit readout
Latitude
Unknown
Longitude
Unknown
Altitude
Unknown
Speed
Unknown
Apparent Right ascension
Unknown
Apparent Declination
Unknown
Sunlit
N/A
Visualization observer readout
Local Sidereal Time
13:11:45
Azimuth
Unknown
Elevation
Unknown
Doppler factor
Unknown
Orbital elements
Apogee altitude
407.91 km
Perigee altitude
406.888 km
Semi-major axis
6,785.536 km
Eccentricity
0.00008
Inclination
53.1596°
RAAN
44.4186°
Arg. of periapsis
91.1238°
True anomaly
21.0607°
Mean anomaly
21.0576°
Eccentric anomaly
21.05915°
Mean motion
3.883 °/min
Orbital period
92.71 mins
BSTAR
-0.041394
Loading maneuver chart data...
Computing Atmospheric mass density...
Loading historical data...
Loading historical data...
Loading historical data...
Loading historical data...
Loading historical data...
Loading historical data...
Loading historical data...

Documentation

Showing up to 5 results
|